This demonstration page uses our WeatherBlox Daily Observations layout. Learn more.

Left ArrowRight Arrow

39.51506, -84.39828

Hourly Observations for January 19, 2021

Temp ( °F °C ) Dew Point ( °F °C ) Humidity (%) Winds ( mph kmh ) Pressure ( in mb ) Visibility ( mi km ) Precip ( " mm )
12:15 am 00:15 Cloudy 32 0.2 29 -1.7 87 87 SW 6 9 30.13 1020 10 16.0934 N/A
12:35 am 00:35 Cloudy 33 0.3 29 -1.9 85 85 SW 6 9 30.12 1020 10 16.0934 N/A
12:55 am 00:55 Mostly Cloudy 32 undefined 28 -2.2 85 85 SW 7 11 30.14 1020 10 16.0934 N/A
1:15 am 01:15 Cloudy 33 0.6 29 -1.8 84 84 SW 9 15 30.13 1020 10 16.0934 N/A
1:35 am 01:35 Cloudy 33 0.5 28 -2 84 84 SW 9 15 30.14 1021 10 16.0934 N/A
1:55 am 01:55 Cloudy 32 undefined 28 -2.2 85 85 SSW 7 11 30.15 1021 10 16.0934 N/A
2:15 am 02:15 Cloudy 32 -0.1 28 -2.2 86 86 WSW 3 6 30.16 1021 10 16.0934 N/A
2:35 am 02:35 Mostly Cloudy 32 undefined 28 -2.2 85 85 WSW 3 6 30.17 1022 10 16.0934 N/A
2:55 am 02:55 Mostly Cloudy 31 -0.3 28 -2.1 88 88 SSW 3 6 30.17 1022 10 16.0934 N/A
3:15 am 03:15 Cloudy 31 -0.5 28 -2 90 90 N N/A 30.18 1022 10 16.0934 N/A
3:35 am 03:35 Cloudy 32 undefined 28 -2.2 85 85 WSW 3 6 30.18 1022 10 16.0934 N/A
3:55 am 03:55 Cloudy 32 undefined 28 -2.2 85 85 SW 7 11 30.18 1022 10 16.0934 N/A
4:15 am 04:15 Cloudy 32 undefined 28 -2.2 85 85 SW 7 11 30.19 1022 10 16.0934 N/A
4:35 am 04:35 Cloudy 32 -0.1 28 -2.4 85 85 SW 6 9 30.19 1022 10 16.0934 N/A
4:55 am 04:55 Cloudy 31 -0.4 28 -2.5 86 86 WSW 5 7 30.19 1022 10 16.0934 N/A
5:15 am 05:15 Cloudy 31 -0.6 26 -3.2 83 83 N N/A 30.2 1023 10 16.0934 N/A
5:35 am 05:35 Cloudy 31 -0.6 26 -3.5 81 81 NW 5 7 30.21 1023 10 16.0934 N/A
5:55 am 05:55 Cloudy 31 -0.6 25 -3.7 80 80 WNW 5 7 30.21 1023 10 16.0934 N/A
6:15 am 06:15 Cloudy 31 -0.7 26 -3.6 81 81 N N/A 30.22 1023 10 16.0934 N/A
6:35 am 06:35 Cloudy 30 -1 25 -3.7 82 82 N N/A 30.23 1024 10 16.0934 N/A
6:55 am 06:55 Partly Cloudy 29 -1.5 25 -4.1 83 83 NW 3 6 30.24 1024 10 16.0934 N/A
7:15 am 07:15 Clear 28 -2 24 -4.6 83 83 NNW 3 6 30.25 1024 10 16.0934 N/A
7:35 am 07:35 Clear 28 -2.2 24 -4.4 85 85 NNW 3 6 30.26 1025 10 16.0934 N/A
7:55 am 07:55 Sunny with Mist and Fog 24 -4.5 23 -5.2 95 95 N N/A 30.27 1025 5 8.0467 N/A
8:15 am 08:15 Sunny with Mist and Fog 24 -4.4 24 -4.4 100 100 N N/A 30.28 1025 2 3.21868 N/A
8:35 am 08:35 Sunny with Mist and Fog 24 -4.2 24 -4.3 99 99 W 3 6 30.28 1025 4 6.43736 N/A
8:55 am 08:55 Sunny 26 -3.2 24 -4.2 93 93 WSW 3 6 30.27 1025 10 16.0934 N/A
9:15 am 09:15 Sunny 29 -1.8 23 -4.8 80 80 N N/A 30.27 1025 10 16.0934 N/A
9:35 am 09:35 Sunny 30 -1.2 22 -5.5 73 73 WSW 3 6 30.27 1025 10 16.0934 N/A
9:55 am 09:55 Sunny 31 -0.8 23 -5.2 72 72 WSW 7 11 30.28 1025 10 16.0934 N/A
10:15 am 10:15 Sunny 31 -0.3 22 -5.6 68 68 WSW 6 9 30.28 1025 10 16.0934 N/A
10:35 am 10:35 Sunny 33 0.3 22 -5.5 65 65 SW 7 11 30.27 1025 10 16.0934 N/A
10:55 am 10:55 Sunny 34 0.9 22 -5.3 64 64 WSW 7 11 30.28 1025 10 16.0934 N/A
11:15 am 11:15 Sunny 34 1.1 21 -6.2 59 59 WSW 8 13 30.29 1026 10 16.0934 N/A
11:35 am 11:35 Sunny 35 1.5 22 -5.8 59 59 WSW 8 13 30.29 1026 10 16.0934 N/A
11:55 am 11:55 Sunny 35 1.9 21 -5.9 57 57 WSW 7 11 30.28 1025 10 16.0934 N/A
12:15 pm 12:15 Sunny 37 2.6 20 -6.9 50 50 WSW 9 15 30.27 1025 10 16.0934 N/A
12:35 pm 12:35 Sunny 37 3 21 -6.3 51 51 W 10 17 30.27 1025 10 16.0934 N/A
12:55 pm 12:55 Sunny 38 3.3 21 -6.2 50 50 W 10 17 30.27 1025 10 16.0934 N/A
1:15 pm 13:15 Sunny 39 3.8 22 -5.8 50 50 SW 9 15 30.26 1025 10 16.0934 N/A
1:35 pm 13:35 Sunny 39 4 21 -5.9 49 49 WSW 6 9 30.24 1024 10 16.0934 N/A
1:55 pm 13:55 Sunny 40 4.3 22 -5.8 48 48 W 7 11 30.23 1024 10 16.0934 N/A
2:15 pm 14:15 Sunny 40 4.5 21 -6 47 47 W 9 15 30.23 1024 10 16.0934 N/A
2:35 pm 14:35 Sunny 41 4.9 22 -5.8 46 46 WSW 10 17 30.22 1023 10 16.0934 N/A
2:55 pm 14:55 Sunny 41 5 21 -6.3 44 44 WSW 16 26 30.23 1024 10 16.0934 N/A
3:15 pm 15:15 Sunny 41 5.2 19 -7 41 41 W 13 20 30.22 1023 10 16.0934 N/A
3:35 pm 15:35 Sunny 42 5.3 21 -6.3 43 43 WSW 12 19 30.22 1023 10 16.0934 N/A
3:55 pm 15:55 Sunny 42 5.3 21 -6.2 44 44 WSW 14 22 30.22 1023 10 16.0934 N/A
4:15 pm 16:15 Sunny 41 5 19 -7.3 41 41 WSW 14 22 30.22 1023 10 16.0934 N/A
4:35 pm 16:35 Sunny 41 4.9 20 -6.6 44 44 WSW 10 17 30.22 1023 10 16.0934 N/A
4:55 pm 16:55 Sunny 40 4.6 20 -6.4 45 45 W 9 15 30.22 1023 10 16.0934 N/A
5:15 pm 17:15 Sunny 39 4 20 -6.9 45 45 W 12 19 30.22 1024 10 16.0934 N/A
5:35 pm 17:35 Sunny 37 3 20 -6.4 50 50 WSW 7 11 30.23 1024 10 16.0934 N/A
5:55 pm 17:55 Clear 37 2.9 20 -6.4 51 51 WSW 5 7 30.22 1023 10 16.0934 N/A
6:15 pm 18:15 Clear 37 2.5 20 -6.4 52 52 WSW 3 6 30.22 1023 10 16.0934 N/A
6:35 pm 18:35 Cloudy 36 2.1 21 -6.2 55 55 SW 3 6 30.22 1023 10 16.0934 N/A
6:55 pm 18:55 Cloudy 32 0.1 25 -4 74 74 SW 3 6 30.23 1024 10 16.0934 N/A
7:15 pm 19:15 Cloudy 32 0.1 24 -4.3 73 73 SSW 5 7 30.22 1023 10 16.0934 N/A
7:35 pm 19:35 Cloudy 33 0.3 26 -3.3 77 77 SSW 5 7 30.2 1023 10 16.0934 N/A
7:55 pm 19:55 Cloudy 35 1.5 25 -3.9 68 68 SW 5 7 30.19 1022 10 16.0934 N/A
8:15 pm 20:15 Cloudy 33 0.8 26 -3.2 75 75 SW 6 9 30.19 1022 10 16.0934 N/A
8:35 pm 20:35 Cloudy 35 1.8 25 -3.8 67 67 SW 7 11 30.19 1022 10 16.0934 N/A
8:55 pm 20:55 Cloudy 36 2.4 24 -4.3 62 62 SW 8 13 30.19 1022 10 16.0934 N/A
9:15 pm 21:15 Cloudy 38 3.1 23 -5.2 55 55 WSW 14 22 30.18 1022 10 16.0934 N/A
9:35 pm 21:35 Cloudy 38 3.1 23 -5.2 55 55 SW 9 15 30.17 1022 10 16.0934 N/A
9:55 pm 21:55 Cloudy 37 3 23 -5.1 56 56 SW 12 19 30.17 1022 10 16.0934 N/A
10:15 pm 22:15 Mostly Cloudy 37 2.8 24 -4.7 58 58 SW 13 20 30.16 1021 10 16.0934 N/A
10:35 pm 22:35 Cloudy 37 3 23 -4.8 57 57 SW 12 19 30.16 1021 10 16.0934 N/A
10:55 pm 22:55 Cloudy 38 3.1 24 -4.6 57 57 SW 10 17 30.15 1021 10 16.0934 N/A
11:15 pm 23:15 Cloudy 38 3.4 25 -4.1 58 58 WSW 17 28 30.15 1021 10 16.0934 N/A
11:35 pm 23:35 Cloudy 38 3.6 26 -3.5 60 60 WSW 18 30 30.15 1021 10 16.0934 N/A
11:55 pm 23:55 Cloudy 38 3.3 26 -3.3 62 62 W 16 26 30.15 1021 10 16.0934 N/A

Powered by AerisWeather